Wetbulb
66.28 65.25 68.09 68.07 67.99 67.50 67.83 68.71 68.39 67.02 64.45 63.03 61.84 59.88 57.72 56.23 54.58 53.31 52.10 50.86 49.65 48.75
67.14 66.51 68.06 67.90 67.89 67.94 68.56 68.21 67.47 64.90 63.34 61.74 59.86 57.46 56.30 54.17 52.09 51.98 51.66 50.12 47.93 46.24
68.40 68.03 68.41 67.61 66.87 67.61 68.15 67.38 65.50 63.68 61.96 59.77 58.26 56.86 55.08 52.44 52.35 51.20 49.51 46.78 44.32 42.18
68.95 68.38 68.05 67.27 66.78 67.67 67.09 66.08 64.65 62.49 60.27 57.75 57.00 55.56 53.55 53.03 51.63 47.94 44.56 43.13 41.80 39.68
67.76 67.25 67.65 67.29 68.12 68.08 65.94 64.96 63.28 61.24 58.86 57.60 55.19 54.39 53.24 52.04 48.45 45.31 42.56 41.39 40.29 39.32
66.54 66.98 67.02 67.96 68.21 66.68 64.91 63.09 61.80 59.79 57.75 55.57 55.02 53.14 51.19 49.28 44.23 41.69 40.26 39.35 38.79 38.85
65.45 66.49 66.91 68.25 67.13 65.45 63.46 61.26 60.07 58.66 56.17 54.96 53.13 50.21 47.25 42.47 40.41 40.05 39.60 39.74 40.02 39.73
65.38 65.84 66.51 66.41 65.91 64.30 61.99 60.57 58.72 56.47 53.92 52.56 50.97 47.18 43.31 40.11 37.82 37.51 37.81 39.58 41.14 41.49
64.64 65.25 64.90 63.61 61.49 60.62 59.32 57.69 55.88 54.07 52.24 50.56 47.66 45.19 44.08 39.44 35.69 36.25 36.02 35.40 36.20 37.00
64.48 63.84 62.49 60.07 57.87 56.02 55.25 54.73 52.81 51.60 49.61 46.18 44.29 43.39 41.91 40.22 34.77 34.10 33.79 33.94 34.55 35.94
62.98 59.50 56.75 55.30 54.55 53.69 52.16 49.61 47.91 46.38 45.33 43.71 42.39 40.01 38.48 38.24 34.52 33.43 33.21 32.62 32.34 32.54
59.09 55.54 54.12 52.93 52.29 51.43 49.03 46.76 45.23 44.47 42.87 40.33 37.32 38.49 38.04 36.28 34.48 33.46 32.25 32.35 32.23 32.61
53.70 52.68 50.50 49.92 49.64 49.35 46.98 44.96 43.38 40.35 38.75 38.90 35.40 37.89 37.86 36.52 35.00 32.69 31.80 31.33 33.52 39.18
52.80 51.24 49.93 48.22 47.73 46.65 44.38 42.18 39.41 36.12 35.87 35.70 36.29 36.19 37.82 37.70 35.40 33.97 33.44 33.23 33.42 35.82
MSLP
1001.33 1001.86 1001.86 1002.23 1002.78 1003.40 1003.83 1005.06 1006.17 1007.18 1007.93 1008.94 1009.76 1010.67 1011.35 1012.08 1012.81 1013.45 1014.16 1014.83 1015.20 1015.67
1000.01 1001.29 1001.43 1001.98 1002.45 1003.12 1003.70 1004.65 1005.64 1006.45 1008.16 1008.64 1009.71 1011.00 1011.84 1012.66 1013.35 1014.04 1014.98 1015.51 1015.93 1016.49
999.31 999.98 1000.59 1001.57 1002.56 1003.11 1003.91 1004.49 1005.67 1006.46 1007.69 1008.36 1010.00 1011.18 1012.30 1013.30 1013.86 1014.67 1015.63 1016.20 1016.73 1017.28
998.41 998.94 999.95 1000.91 1001.77 1002.97 1003.97 1004.50 1005.63 1006.70 1007.43 1008.09 1009.50 1011.37 1012.84 1014.06 1014.39 1015.33 1016.35 1017.08 1017.50 1017.97
997.58 998.24 999.45 1000.27 1000.97 1002.32 1003.43 1004.64 1005.51 1006.80 1007.92 1008.53 1009.93 1011.07 1012.80 1014.43 1014.64 1016.31 1017.10 1017.76 1018.01 1018.40
996.47 997.76 998.69 999.63 1000.47 1001.94 1003.38 1004.55 1006.08 1006.70 1007.73 1009.38 1010.43 1011.49 1013.02 1014.65 1015.50 1016.88 1017.83 1018.36 1018.46 1018.92
995.62 996.58 998.24 999.30 1000.22 1001.62 1003.14 1004.42 1006.09 1006.12 1007.44 1009.62 1011.17 1011.81 1013.62 1014.55 1016.78 1017.58 1018.52 1018.74 1019.03 1019.20
994.77 995.89 997.68 999.49 1000.35 1001.80 1003.12 1004.64 1005.97 1007.47 1007.37 1010.34 1011.93 1012.85 1014.30 1015.79 1016.98 1018.28 1018.98 1019.37 1019.29 1019.39
994.38 995.77 998.12 999.92 1001.03 1002.40 1003.99 1005.38 1006.64 1007.59 1008.75 1010.93 1012.93 1013.96 1015.40 1016.09 1017.49 1018.71 1019.26 1019.54 1019.91 1019.86
993.89 996.06 998.58 1000.11 1002.13 1003.07 1004.96 1006.83 1007.70 1009.30 1010.20 1012.31 1012.99 1015.62 1015.90 1017.28 1018.34 1018.89 1019.42 1019.73 1020.06 1020.37
994.40 996.73 999.37 1000.40 1002.59 1004.32 1005.81 1007.91 1007.10 1010.14 1012.11 1014.34 1015.13 1015.45 1016.90 1018.28 1018.76 1019.23 1019.92 1020.31 1020.69 1020.86
995.25 997.79 998.41 1000.74 1002.57 1004.28 1006.29 1008.42 1009.95 1012.61 1013.71 1014.33 1016.76 1016.57 1017.75 1018.46 1019.03 1019.74 1020.44 1020.66 1021.09 1021.09
995.55 998.08 1000.19 1001.02 1002.31 1004.73 1005.92 1009.69 1011.45 1013.37 1013.95 1016.40 1017.57 1017.79 1018.37 1018.71 1018.74 1020.48 1020.63 1021.52 1021.67 1021.47
998.34 1000.04 1000.62 1002.26 1003.15 1004.33 1007.52 1009.52 1013.04 1013.55 1015.99 1017.47 1017.87 1018.31 1018.87 1019.28 1019.80 1020.49 1021.09 1021.80 1022.19 1022.09
Wind_Speed
16 11 10 12 11 11 12 11 14 12 12 13 12 10 9 8 8 9 8 9 7 6
16 14 12 12 12 10 11 10 13 15 14 14 14 11 11 8 9 10 8 8 8 7
18 16 13 12 13 13 12 15 14 16 16 16 14 12 12 10 11 11 7 6 9 7
16 16 15 15 15 14 14 16 16 17 17 18 17 13 13 11 11 12 10 8 9 7
15 16 16 15 16 15 16 15 17 17 17 17 16 16 16 12 12 11 10 8 9 8
17 17 17 17 17 18 17 17 16 18 18 17 17 17 15 12 13 10 9 7 8 6
17 18 17 16 18 19 19 20 17 14 21 18 17 17 16 16 12 11 9 8 6 6
16 15 16 16 16 16 20 19 20 16 21 19 17 13 16 15 14 12 10 6 6 5
14 15 18 17 16 18 16 18 20 20 20 19 12 25 23 18 13 11 10 9 7 7
15 19 18 20 20 23 22 16 21 17 18 19 20 23 23 20 10 10 9 8 8 7
21 23 21 25 23 22 21 22 17 19 18 17 15 25 23 20 12 11 10 9 7 8
25 26 24 25 24 23 22 20 20 17 17 19 14 25 21 17 13 12 10 7 7 7
27 26 25 26 24 21 25 23 16 17 16 19 16 19 16 14 11 11 8 5 6 13
21 20 24 24 21 23 25 24 17 20 15 15 14 12 13 12 9 8 8 7 6 7
Wind_Direction
200 207 198 191 177 185 178 171 161 149 137 130 121 116 110 100 97 98 94 93 77 79
197 198 194 186 180 180 164 156 152 138 135 125 117 116 113 107 104 94 96 90 84 82
199 188 176 169 181 175 165 150 149 137 136 121 116 115 113 109 105 101 91 90 93 84
196 184 172 177 174 172 161 152 148 143 136 127 123 117 104 102 108 99 98 90 100 89
178 182 175 176 164 156 149 148 141 140 137 126 120 119 118 118 103 107 106 109 104 98
181 179 174 169 157 151 148 141 144 143 132 125 123 116 111 117 101 106 103 103 100 107
186 185 167 161 155 153 144 137 141 141 121 120 118 111 114 103 108 97 95 92 104 106
178 171 152 156 153 143 142 137 131 128 115 116 116 118 117 112 109 109 106 101 101 119
163 148 138 139 125 125 120 125 126 122 119 120 114 114 119 114 115 116 112 106 85 73
148 127 135 124 120 118 106 108 106 100 109 106 110 115 105 107 108 112 107 102 94 81
126 119 132 122 124 116 116 108 96 102 103 111 108 107 105 110 109 99 95 93 94 90
131 127 129 124 124 120 110 96 103 108 115 107 114 111 115 115 110 102 98 92 86 89
122 132 129 123 124 122 106 110 105 109 99 122 121 114 119 118 113 114 100 77 73 87
113 119 121 115 117 109 117 104 112 107 113 116 117 115 112 105 112 114 114 100 89 82